星链-30323 (STARLINK-30323 )

导读

STARLINK-30323是美国SpaceX公司星链(Starlink)星座中的第二代低轨通信卫星,于2023年8月17日发射升空,运行在约500公里左右的近地轨道。它采用平板设计,搭载相控阵天线与氪霍尔推进器,配备Ku/Ka波段通信载荷与光学星间链路,具备自主避碰能力,旨在为全球提供高速低延迟宽带互联网服务,寿命末期将主动离轨再入大气层销毁。

基本信息
目录编号:
57634
目录名称:
STARLINK-30323
国际标识:
2023-122C
轨道中心:
EARTH
卫星名称:
星链-30323
卫星全名:
星链-30323 (STARLINK-30323 )
卫星状态:
在轨 (已飞行1036 天)
发射日期:
2023-08-17 UTC
国别 :
美国 (US)
星等 :
--
轨道信息
数据来源 国际轨道数据
星历时间: 2026-06-18T13:20:41+0800
8小时前
查看轨道信息
半长轴: 6861.211km
偏心率: 0.0000532
轨道倾角: 42.997°
近地点辐角 263.596°
升交点赤经 233.592°
平近点角 96.483°
近地点: 482.708km
远地点: 483.44km
周期: 94.267分钟
每日圈数: 15.27572
详细信息
固有亮度:
5
最大亮度:
0.3
卫星平台:
Starlink v2.0 mini
覆盖范围:
全球
运营商:
太空探索技术公司
运营商所在国:
美国
制造商(研发单位):
太空探索技术公司
制造商所在国:
美国
使用方式:
暂无
卫星简介
星链(Starlink)计划是由太空探索技术公司(SpaceX)提出的一个巨型低轨卫星互联网星座项目,计划在2019年至2024年间在太空搭建由约1.2万颗卫星组成的“星链”网络,其中1584颗将部署在地球上空550千米处的近地轨道,并从2020年开始工作。该卫星仍在工作。
2D轨道图
3D轨道图
轨道高度分析图
轨道倾角分析图
轨道综合分析图
查看轨道综合分析图